Location: Unspecified
(45.6669°N, 0.0000°E)
Time: 04:06:32
(UTC+00:00)

ISS - Visible Passes

Search period start: 23 September 2020 00:00
Search period end: 03 October 2020 00:00
Orbit: 419 x 420 km, 51.6° (Epoch: 23 September)

Date Brightness Start Highest point End Pass type
(mag) Time Alt. Az. Time Alt. Az. Time Alt. Az.
23 Sep -2.8 18:54:07 10° W 18:57:21 44° NNW 19:00:25 11° NE visible
23 Sep -1.2 20:31:43 10° WNW 20:33:23 21° NW 20:33:23 21° NW visible
24 Sep -2.2 19:44:09 10° WNW 19:47:09 29° N 19:47:47 26° NNE visible
25 Sep -2.2 18:56:32 10° WNW 18:59:35 31° N 19:02:09 13° NE visible
25 Sep -1.0 20:33:52 10° NW 20:35:07 19° NW 20:35:07 19° NW visible
26 Sep -2.3 19:46:24 10° WNW 19:49:25 29° N 19:49:27 29° N visible
27 Sep -2.2 18:58:51 10° WNW 19:01:50 28° N 19:03:46 17° NE visible
27 Sep -0.8 20:35:49 10° WNW 20:36:44 17° NW 20:36:44 17° NW visible
28 Sep -2.2 18:11:14 10° WNW 18:14:14 28° N 18:17:14 10° ENE visible
28 Sep -2.5 19:48:23 10° NW 19:51:03 36° N 19:51:03 36° N visible
29 Sep -2.6 19:00:55 10° NW 19:04:02 33° NNE 19:05:23 24° NE visible
29 Sep -0.6 20:37:42 10° WNW 20:38:20 15° WNW 20:38:20 15° WNW visible
30 Sep -2.4 18:13:24 10° WNW 18:16:26 30° N 18:19:27 10° ENE visible
30 Sep -2.7 19:50:14 10° WNW 19:52:41 44° NW 19:52:41 44° NW visible
01 Oct -3.4 19:02:47 10° WNW 19:06:05 51° NNE 19:07:03 37° ENE visible
01 Oct -0.3 20:39:46 10° WNW 20:40:01 11° W 20:40:01 11° W visible
02 Oct -3.0 18:15:18 10° NW 18:18:31 40° NNE 18:21:28 12° E visible
02 Oct -2.2 19:52:08 10° WNW 19:54:26 35° W 19:54:26 35° W visible
